EA1IDU Weather Reports


Display with metric or nautical units.
time (UTC)temp
F
wind
direction
speed
MPH
gust
MPH
rain 1hr
in
rain 24hr
in
rain mn
in
humidity
%
barometer
mb
20260905164614 0 267 11.0 25.0 0.00 0.00 0.00 1 1025.9
20260905163609 0 267 11.0 17.0 0.00 0.00 0.00 1 1025.5
20260905162604 0 270 12.0 21.0 0.00 0.00 0.00 1 1025.2
20260905161559 0 266 8.0 17.0 0.00 0.00 0.00 1 1025.2
20260905160553 0 266 8.0 17.0 0.00 0.00 0.00 1 1025.1
20260905155547 0 270 9.0 21.0 0.00 0.00 0.00 1 1025.1
20260905154544 0 252 11.0 18.0 0.00 0.00 0.00 1 1024.9
20260905153537 0 260 11.0 20.0 0.00 0.00 0.00 1 1024.8
20260905152532 0 243 8.0 21.0 0.00 0.00 0.00 1 1024.8
20260905151528 0 248 13.0 17.0 0.00 0.00 0.00 1 1024.9
20260905150522 0 252 9.0 15.0 0.00 0.00 0.00 1 1024.9
20260905145516 0 240 11.0 17.0 0.00 0.00 0.00 1 1024.9
20260905144611 0 248 12.0 27.0 0.00 0.00 0.00 1 1025.0
20260905143605 0 240 13.0 22.0 0.00 0.00 0.00 1 1024.9
20260905142620 0 245 11.0 16.0 0.00 0.00 0.00 1 1024.8
20260905141555 0 240 10.0 20.0 0.00 0.00 0.00 1 1024.7
20260905140610 0 232 13.0 27.0 0.00 0.00 0.00 1 1024.8
20260905135544 0 233 10.0 15.0 0.00 0.00 0.00 1 1025.0
20260905134540 0 235 13.0 24.0 0.00 0.00 0.00 1 1025.0
20260905133534 0 239 12.0 22.0 0.00 0.00 0.00 1 1024.9
20260905132529 0 229 10.0 15.0 0.00 0.00 0.00 1 1024.9
20260905131523 0 244 9.0 17.0 0.00 0.00 0.00 1 1024.9
20260905130518 0 235 11.0 16.0 0.00 0.00 0.00 1 1025.1
20260905125613 0 245 9.0 15.0 0.00 0.00 0.00 1 1025.1
20260905124608 0 236 11.0 18.0 0.00 0.00 0.00 1 1025.1
20260905123602 0 234 11.0 16.0 0.00 0.00 0.00 1 1025.0
20260905122557 0 232 9.0 13.0 0.00 0.00 0.00 1 1025.0
20260905121552 0 241 10.0 15.0 0.00 0.00 0.00 1 1025.1
20260905120547 0 248 9.0 14.0 0.00 0.00 0.00 1 1025.2
20260905115541 0 244 7.0 15.0 0.00 0.00 0.00 1 1025.2
20260905114536 0 223 6.0 11.0 0.00 0.00 0.00 1 1025.3
20260905113531 0 242 10.0 17.0 0.00 0.00 0.00 1 1025.3
20260905112525 0 228 8.0 13.0 0.00 0.00 0.00 1 1025.4
20260905111520 0 231 8.0 14.0 0.00 0.00 0.00 1 1025.5
20260905110615 0 248 9.0 14.0 0.00 0.00 0.00 1 1025.6
20260905105611 0 235 7.0 14.0 0.00 0.00 0.00 1 1025.5
20260905104604 0 240 9.0 14.0 0.00 0.00 0.00 1 1025.7
20260905103559 0 240 9.0 15.0 0.00 0.00 0.00 1 1025.5
20260905102554 0 239 6.0 14.0 0.00 0.00 0.00 1 1025.6
20260905101550 0 248 6.0 13.0 0.00 0.00 0.00 1 1025.6
20260905100545 0 250 7.0 14.0 0.00 0.00 0.00 1 1025.7
20260905095538 0 248 8.0 13.0 0.00 0.00 0.00 1 1025.7
20260905094533 0 253 3.0 14.0 0.00 0.00 0.00 1 1025.8
20260905093527 0 287 5.0 11.0 0.00 0.00 0.00 1 1025.7
20260905092522 0 290 3.0 8.0 0.00 0.00 0.00 1 1025.8
20260905091518 0 289 4.0 7.0 0.00 0.00 0.00 1 1025.6
20260905090614 0 270 4.0 8.0 0.00 0.00 0.00 1 1025.7
20260905085607 0 270 6.0 9.0 0.00 0.00 0.00 1 1025.6
20260905084604 0 270 6.0 9.0 0.00 0.00 0.00 1 1025.6
20260905083558 0 270 6.0 11.0 0.00 0.00 0.00 1 1025.7
20260905082551 0 270 4.0 7.0 0.00 0.00 0.00 1 1025.8
20260905081546 0 270 5.0 8.0 0.00 0.00 0.00 1 1025.6
20260905080541 0 270 6.0 9.0 0.00 0.00 0.00 1 1025.6
20260905075536 0 270 7.0 11.0 0.00 0.00 0.00 1 1025.6
20260905074530 0 270 9.0 13.0 0.00 0.00 0.00 1 1025.6
20260905073525 0 270 7.0 11.0 0.00 0.00 0.00 1 1025.7
20260905072519 0 270 7.0 9.0 0.00 0.00 0.00 1 1025.5
20260905071615 0 270 6.0 11.0 0.00 0.00 0.00 1 1025.6
20260905070609 0 270 9.0 11.0 0.00 0.00 0.00 1 1025.5
20260905065605 0 270 8.0 13.0 0.00 0.00 0.00 1 1025.3
20260905064559 0 270 8.0 14.0 0.00 0.00 0.00 1 1025.3
20260905063553 0 270 8.0 13.0 0.00 0.00 0.00 1 1025.3
20260905062548 0 270 4.0 7.0 0.00 0.00 0.00 1 1025.3
20260905061544 0 270 4.0 7.0 0.00 0.00 0.00 1 1025.5
20260905060538 0 270 1.0 4.0 0.00 0.00 0.00 1 1025.3
20260905055552 0 270 6.0 11.0 0.00 0.00 0.00 1 1025.3
20260905054528 0 270 6.0 11.0 0.00 0.00 0.00 1 1025.3
20260905053522 0 270 8.0 11.0 0.00 0.00 0.00 1 1025.2
20260905052517 0 270 7.0 11.0 0.00 0.00 0.00 1 1025.3
20260905051611 0 270 6.0 8.0 0.00 0.00 0.00 1 1025.3
20260905050606 0 270 7.0 11.0 0.00 0.00 0.00 1 1025.5
20260905045602 0 270 7.0 11.0 0.00 0.00 0.00 1 1025.5
20260905044555 0 270 5.0 7.0 0.00 0.00 0.00 1 1025.6
20260905043550 0 270 7.0 9.0 0.00 0.00 0.00 1 1025.7
20260905042606 0 270 7.0 11.0 0.00 0.00 0.00 1 1025.7
20260905041540 0 270 7.0 11.0 0.00 0.00 0.00 1 1025.6
20260905040534 0 270 5.0 7.0 0.00 0.00 0.00 1 1025.8
20260905035529 0 270 5.0 7.0 0.00 0.00 0.00 1 1025.9
20260905034525 0 270 5.0 7.0 0.00 0.00 0.00 1 1025.8
20260905033520 0 270 5.0 8.0 0.00 0.00 0.00 1 1025.9
20260905032633 0 270 5.0 7.0 0.00 0.00 0.00 1 1026.0
20260905031608 0 270 5.0 7.0 0.00 0.00 0.00 1 1026.0
20260905030603 0 270 6.0 8.0 0.00 0.00 0.00 1 1026.0
20260905025557 0 270 3.0 6.0 0.00 0.00 0.00 1 1026.2
20260905024552 0 270 4.0 9.0 0.00 0.00 0.00 1 1026.0
20260905023547 0 270 8.0 11.0 0.00 0.00 0.00 1 1026.0
20260905022602 0 270 6.0 11.0 0.00 0.00 0.00 1 1026.0
20260905021537 0 270 7.0 9.0 0.00 0.00 0.00 1 1026.0
20260905020532 0 270 8.0 11.0 0.00 0.00 0.00 1 1025.9
20260905015526 0 270 7.0 11.0 0.00 0.00 0.00 1 1026.0
20260905014521 0 270 5.0 9.0 0.00 0.00 0.00 1 1026.0
20260905013538 0 270 5.0 8.0 0.00 0.00 0.00 1 1026.0
20260905012611 0 270 5.0 8.0 0.00 0.00 0.00 1 1025.9
20260905011606 0 270 4.0 8.0 0.00 0.00 0.00 1 1026.1
20260905010602 0 270 4.0 6.0 0.00 0.00 0.00 1 1026.2
20260905005555 0 270 4.0 8.0 0.00 0.00 0.00 1 1026.2
20260905004551 0 270 6.0 11.0 0.00 0.00 0.00 1 1026.2
20260905003625 0 270 5.0 9.0 0.00 0.00 0.00 1 1026.3
20260905002540 0 270 3.0 7.0 0.00 0.00 0.00 1 1026.3
20260905001535 0 270 5.0 9.0 0.00 0.00 0.00 1 1026.2
20260905000529 0 270 5.0 8.0 0.00 0.00 0.00 1 1026.3
20260904235604 0 270 4.0 11.0 0.00 0.00 0.00 1 1026.3
20260904234539 0 270 4.0 7.0 0.00 0.00 0.00 1 1026.3
20260904233613 0 270 5.0 8.0 0.00 0.00 0.00 1 1026.4
20260904232629 0 270 4.0 8.0 0.00 0.00 0.00 1 1026.4
20260904231604 0 270 6.0 11.0 0.00 0.00 0.00 1 1026.5
20260904230600 0 270 8.0 13.0 0.00 0.00 0.00 1 1026.6
20260904225553 0 270 8.0 11.0 0.00 0.00 0.00 1 1026.4
20260904224608 0 270 9.0 13.0 0.00 0.00 0.00 1 1026.5
20260904223623 0 270 9.0 14.0 0.00 0.00 0.00 1 1026.4
20260904222537 0 270 9.0 15.0 0.00 0.00 0.00 1 1026.5
20260904221532 0 270 8.0 13.0 0.00 0.00 0.00 1 1026.5
20260904220527 0 270 6.0 11.0 0.00 0.00 0.00 1 1026.6
20260904215522 0 270 5.0 8.0 0.00 0.00 0.00 1 1026.5
20260904214516 0 270 6.0 8.0 0.00 0.00 0.00 1 1026.5
20260904213611 0 270 4.0 7.0 0.00 0.00 0.00 1 1026.6
20260904212606 0 270 3.0 8.0 0.00 0.00 0.00 1 1026.6
20260904211601 0 270 5.0 9.0 0.00 0.00 0.00 1 1026.6
20260904210557 0 270 5.0 11.0 0.00 0.00 0.00 1 1026.6
20260904205551 0 270 4.0 13.0 0.00 0.00 0.00 1 1026.4
20260904204545 0 270 5.0 11.0 0.00 0.00 0.00 1 1026.4
20260904203541 0 270 4.0 9.0 0.00 0.00 0.00 1 1026.2
20260904202535 0 270 5.0 11.0 0.00 0.00 0.00 1 1026.1
20260904201551 0 270 1.0 4.0 0.00 0.00 0.00 1 1025.8
20260904200524 0 270 1.0 4.0 0.00 0.00 0.00 1 1025.8
20260904195519 0 282 2.0 4.0 0.00 0.00 0.00 1 1025.7
20260904194634 0 270 1.0 2.0 0.00 0.00 0.00 1 1025.7
20260904193609 0 0.0 0.0 0.00 0.00 0.00 1 1025.6
20260904192604 0 0.0 0.0 0.00 0.00 0.00 1 1025.4
20260904191620 0 0.0 0.0 0.00 0.00 0.00 1 1025.2
20260904190614 0 0.0 0.0 0.00 0.00 0.00 1 1025.1
20260904185548 0 0.0 0.0 0.00 0.00 0.00 1 1025.2
20260904184543 0 0.0 0.0 0.00 0.00 0.00 1 1025.0
20260904183538 0 256 1.0 2.0 0.00 0.00 0.00 1 1025.1
20260904182532 0 270 1.0 2.0 0.00 0.00 0.00 1 1025.1
20260904181608 0 270 0.0 2.0 0.00 0.00 0.00 1 1024.9
20260904180522 0 293 2.0 4.0 0.00 0.00 0.00 1 1024.9
20260904175517 0 263 4.0 7.0 0.00 0.00 0.00 1 1024.9
20260904174612 0 254 3.0 7.0 0.00 0.00 0.00 1 1025.0
20260904173627 0 256 3.0 6.0 0.00 0.00 0.00 1 1024.9
20260904172602 0 279 3.0 7.0 0.00 0.00 0.00 1 1024.8
20260904171557 0 248 5.0 8.0 0.00 0.00 0.00 1 1025.0
20260904170613 0 252 5.0 9.0 0.00 0.00 0.00 1 1024.8
20260904165627 0 247 7.0 13.0 0.00 0.00 0.00 1 1024.9